Time,TemperatureF,DewpointF,PressureIn,WindDirection,WindDirectionDegrees,WindSpeedMPH,WindSpeedGustMPH,Humidity,HourlyPrecipIn,Conditions,Clouds,dailyrainin,SolarRadiationWatts/m^2,SoftwareType,DateUTC
2013-06-11 00:03:00,78.0,74.0,-100.00,ESE,119,0.0,4.0,89,0.00,,,0.00,0.000000,,2013-06-11 04:03:00,
2013-06-11 00:11:00,76.0,74.0,-100.00,ENE,63,0.0,2.0,93,0.00,,,0.00,0.000000,,2013-06-11 04:11:00,
2013-06-11 00:34:00,76.0,74.0,-100.00,ENE,63,0.0,2.0,93,0.00,,,0.00,0.000000,,2013-06-11 04:34:00,
2013-06-11 00:43:00,76.0,74.0,-100.00,ENE,63,0.0,2.0,93,0.00,,,0.00,0.000000,,2013-06-11 04:43:00,
2013-06-11 00:53:00,76.0,74.0,-100.00,ENE,63,0.0,2.0,93,0.00,,,0.00,0.000000,,2013-06-11 04:53:00,
2013-06-11 01:02:00,76.0,74.0,-100.00,ENE,63,0.0,2.0,93,0.00,,,0.00,0.000000,,2013-06-11 05:02:00,
2013-06-11 01:11:00,75.0,73.0,-100.00,East,83,0.0,0.0,95,0.00,,,0.00,0.000000,,2013-06-11 05:11:00,
2013-06-11 01:32:00,75.0,73.0,-100.00,East,83,0.0,0.0,95,0.00,,,0.00,0.000000,,2013-06-11 05:32:00,
2013-06-11 01:42:00,75.0,73.0,-100.00,East,83,0.0,0.0,95,0.00,,,0.00,0.000000,,2013-06-11 05:42:00,
2013-06-11 01:52:00,75.0,73.0,-100.00,East,83,0.0,0.0,95,0.00,,,0.00,0.000000,,2013-06-11 05:52:00,
2013-06-11 02:02:00,75.0,73.0,-100.00,East,83,0.0,0.0,95,0.00,,,0.00,0.000000,,2013-06-11 06:02:00,
2013-06-11 02:11:00,74.0,72.0,-100.00,NE,55,0.0,2.0,95,0.00,,,0.00,0.000000,,2013-06-11 06:11:00,
2013-06-11 02:32:00,74.0,72.0,-100.00,NE,55,0.0,2.0,95,0.00,,,0.00,0.000000,,2013-06-11 06:32:00,
2013-06-11 02:42:00,74.0,72.0,-100.00,NE,55,0.0,2.0,95,0.00,,,0.00,0.000000,,2013-06-11 06:42:00,
2013-06-11 02:52:00,74.0,72.0,-100.00,NE,55,0.0,2.0,95,0.00,,,0.00,0.000000,,2013-06-11 06:52:00,
2013-06-11 03:02:00,74.0,72.0,-100.00,NE,55,0.0,2.0,95,0.00,,,0.00,0.000000,,2013-06-11 07:02:00,
2013-06-11 03:11:00,74.0,73.0,-100.00,NNE,32,0.0,2.0,96,0.00,,,0.00,0.000000,,2013-06-11 07:11:00,
2013-06-11 03:32:00,74.0,73.0,-100.00,NNE,32,0.0,2.0,96,0.00,,,0.00,0.000000,,2013-06-11 07:32:00,
2013-06-11 03:42:00,74.0,73.0,-100.00,NNE,32,0.0,2.0,96,0.00,,,0.00,0.000000,,2013-06-11 07:42:00,
2013-06-11 03:52:00,74.0,73.0,-100.00,NNE,32,0.0,2.0,96,0.00,,,0.00,0.000000,,2013-06-11 07:52:00,
2013-06-11 04:03:00,74.0,73.0,-100.00,NNE,32,0.0,2.0,96,0.00,,,0.00,0.000000,,2013-06-11 08:03:00,
2013-06-11 04:11:00,72.0,71.0,-100.00,WNW,303,0.0,0.0,96,0.00,,,0.00,0.000000,,2013-06-11 08:11:00,
2013-06-11 04:32:00,72.0,71.0,-100.00,WNW,303,0.0,0.0,96,0.00,,,0.00,0.000000,,2013-06-11 08:32:00,
2013-06-11 04:42:00,72.0,71.0,-100.00,WNW,303,0.0,0.0,96,0.00,,,0.00,0.000000,,2013-06-11 08:42:00,
2013-06-11 04:52:00,72.0,71.0,-100.00,WNW,303,0.0,0.0,96,0.00,,,0.00,0.000000,,2013-06-11 08:52:00,
2013-06-11 05:02:00,72.0,71.0,-100.00,WNW,303,0.0,0.0,96,0.00,,,0.00,0.000000,,2013-06-11 09:02:00,
2013-06-11 05:11:00,72.0,71.0,-100.00,NNE,19,0.0,0.0,96,0.00,,,0.00,0.000000,,2013-06-11 09:11:00,
2013-06-11 05:33:00,72.0,71.0,-100.00,NNE,19,0.0,0.0,96,0.00,,,0.00,0.000000,,2013-06-11 09:33:00,
2013-06-11 05:43:00,72.0,71.0,-100.00,NNE,19,0.0,0.0,96,0.00,,,0.00,0.000000,,2013-06-11 09:43:00,
2013-06-11 05:53:00,72.0,71.0,-100.00,NNE,19,0.0,0.0,96,0.00,,,0.00,0.000000,,2013-06-11 09:53:00,
2013-06-11 06:03:00,72.0,71.0,-100.00,NNE,19,0.0,0.0,96,0.00,,,0.00,0.000000,,2013-06-11 10:03:00,
2013-06-11 06:11:00,72.0,71.0,-100.00,NE,46,0.0,2.0,96,0.00,,,0.00,0.000000,,2013-06-11 10:11:00,
2013-06-11 06:33:00,72.0,71.0,-100.00,NE,46,0.0,2.0,96,0.00,,,0.00,0.000000,,2013-06-11 10:33:00,
2013-06-11 06:43:00,72.0,71.0,-100.00,NE,46,0.0,2.0,96,0.00,,,0.00,0.000000,,2013-06-11 10:43:00,
2013-06-11 06:52:00,72.0,71.0,-100.00,NE,46,0.0,2.0,96,0.00,,,0.00,0.000000,,2013-06-11 10:52:00,
2013-06-11 07:02:00,72.0,71.0,-100.00,NE,46,0.0,2.0,96,0.00,,,0.00,0.000000,,2013-06-11 11:02:00,
2013-06-11 07:11:00,72.0,71.0,-100.00,North,359,0.0,2.0,96,0.00,,,-99.99,11.000000,,2013-06-11 11:11:00,
2013-06-11 07:32:00,72.0,71.0,-100.00,North,359,0.0,2.0,96,0.00,,,-99.99,11.000000,,2013-06-11 11:32:00,
2013-06-11 07:42:00,72.0,71.0,-100.00,North,359,0.0,2.0,96,0.00,,,-99.99,11.000000,,2013-06-11 11:42:00,
2013-06-11 07:52:00,72.0,71.0,-100.00,North,359,0.0,2.0,96,0.00,,,-99.99,11.000000,,2013-06-11 11:52:00,
2013-06-11 08:02:00,72.0,71.0,-100.00,North,359,0.0,2.0,96,0.00,,,-99.99,11.000000,,2013-06-11 12:02:00,
2013-06-11 08:11:00,76.0,75.0,-100.00,NNE,20,1.0,3.0,96,0.00,,,-99.99,72.000000,,2013-06-11 12:11:00,
2013-06-11 08:32:00,76.0,75.0,-100.00,NNE,20,1.0,3.0,96,0.00,,,-99.99,72.000000,,2013-06-11 12:32:00,
2013-06-11 08:42:00,76.0,75.0,-100.00,NNE,20,1.0,3.0,96,0.00,,,-99.99,72.000000,,2013-06-11 12:42:00,
2013-06-11 08:52:00,76.0,75.0,-100.00,NNE,20,1.0,3.0,96,0.00,,,-99.99,72.000000,,2013-06-11 12:52:00,
2013-06-11 09:02:00,76.0,75.0,-100.00,NNE,20,1.0,3.0,96,0.00,,,-99.99,72.000000,,2013-06-11 13:02:00,
2013-06-11 09:11:00,81.0,77.0,-100.00,North,3,2.0,4.0,88,0.00,,,-99.99,199.000000,,2013-06-11 13:11:00,
2013-06-11 09:32:00,81.0,77.0,-100.00,North,3,2.0,4.0,88,0.00,,,-99.99,199.000000,,2013-06-11 13:32:00,
2013-06-11 09:42:00,81.0,77.0,-100.00,North,3,2.0,4.0,88,0.00,,,-99.99,199.000000,,2013-06-11 13:42:00,
2013-06-11 09:52:00,81.0,77.0,-100.00,North,3,2.0,4.0,88,0.00,,,-99.99,199.000000,,2013-06-11 13:52:00,
2013-06-11 10:02:00,81.0,77.0,-100.00,North,3,2.0,4.0,88,0.00,,,-99.99,199.000000,,2013-06-11 14:02:00,
2013-06-11 10:11:00,86.0,76.0,-100.00,East,100,2.0,7.0,72,0.00,,,0.00,406.000000,,2013-06-11 14:11:00,
2013-06-11 10:32:00,86.0,76.0,-100.00,East,100,2.0,7.0,72,0.00,,,0.00,406.000000,,2013-06-11 14:32:00,
2013-06-11 10:42:00,86.0,76.0,-100.00,East,100,2.0,7.0,72,0.00,,,0.00,406.000000,,2013-06-11 14:42:00,
2013-06-11 10:53:00,86.0,76.0,-100.00,East,100,2.0,7.0,72,0.00,,,0.00,406.000000,,2013-06-11 14:53:00,
2013-06-11 11:02:00,86.0,76.0,-100.00,East,100,2.0,7.0,72,0.00,,,0.00,406.000000,,2013-06-11 15:02:00,
2013-06-11 11:11:00,89.0,75.0,-100.00,East,82,3.0,8.0,63,0.00,,,0.00,588.000000,,2013-06-11 15:11:00,
2013-06-11 11:33:00,89.0,75.0,-100.00,East,82,3.0,8.0,63,0.00,,,0.00,588.000000,,2013-06-11 15:33:00,
2013-06-11 11:43:00,89.0,75.0,-100.00,East,82,3.0,8.0,63,0.00,,,0.00,588.000000,,2013-06-11 15:43:00,
2013-06-11 11:53:00,89.0,75.0,-100.00,East,82,3.0,8.0,63,0.00,,,0.00,588.000000,,2013-06-11 15:53:00,
2013-06-11 12:03:00,89.0,75.0,-100.00,East,82,3.0,8.0,63,0.00,,,0.00,588.000000,,2013-06-11 16:03:00,
2013-06-11 12:11:00,92.0,74.0,-100.00,ENE,65,3.0,10.0,56,0.00,,,0.00,794.000000,,2013-06-11 16:11:00,
2013-06-11 12:33:00,92.0,74.0,-100.00,ENE,65,3.0,10.0,56,0.00,,,0.00,794.000000,,2013-06-11 16:33:00,
2013-06-11 12:42:00,92.0,74.0,-100.00,ENE,65,3.0,10.0,56,0.00,,,0.00,794.000000,,2013-06-11 16:42:00,
2013-06-11 12:53:00,92.0,74.0,-100.00,ENE,65,3.0,10.0,56,0.00,,,0.00,794.000000,,2013-06-11 16:53:00,
2013-06-11 13:02:00,92.0,74.0,-100.00,ENE,65,3.0,10.0,56,0.00,,,0.00,794.000000,,2013-06-11 17:02:00,
2013-06-11 13:11:00,91.0,73.0,-100.00,South,184,2.0,5.0,55,0.00,,,0.00,526.000000,,2013-06-11 17:11:00,
2013-06-11 13:32:00,91.0,73.0,-100.00,South,184,2.0,5.0,55,0.00,,,0.00,526.000000,,2013-06-11 17:32:00,
2013-06-11 13:43:00,91.0,73.0,-100.00,South,184,2.0,5.0,55,0.00,,,0.00,526.000000,,2013-06-11 17:43:00,
2013-06-11 13:53:00,91.0,73.0,-100.00,South,184,2.0,5.0,55,0.00,,,0.00,526.000000,,2013-06-11 17:53:00,
2013-06-11 14:02:00,91.0,73.0,-100.00,South,184,2.0,5.0,55,0.00,,,0.00,526.000000,,2013-06-11 18:02:00,
2013-06-11 14:11:00,94.0,71.0,-100.00,East,87,2.0,7.0,48,0.00,,,0.00,832.000000,,2013-06-11 18:11:00,
2013-06-11 14:33:00,94.0,71.0,-100.00,East,87,2.0,7.0,48,0.00,,,0.00,832.000000,,2013-06-11 18:33:00,
2013-06-11 14:43:00,94.0,71.0,-100.00,East,87,2.0,7.0,48,0.00,,,0.00,832.000000,,2013-06-11 18:43:00,
2013-06-11 14:52:00,94.0,71.0,-100.00,East,87,2.0,7.0,48,0.00,,,0.00,832.000000,,2013-06-11 18:52:00,
2013-06-11 15:03:00,94.0,71.0,-100.00,East,87,2.0,7.0,48,0.00,,,0.00,832.000000,,2013-06-11 19:03:00,
2013-06-11 15:11:00,93.0,73.0,-100.00,North,356,2.0,6.0,53,0.00,,,0.00,532.000000,,2013-06-11 19:11:00,
2013-06-11 15:33:00,93.0,73.0,-100.00,North,356,2.0,6.0,53,0.00,,,0.00,532.000000,,2013-06-11 19:33:00,
2013-06-11 15:42:00,93.0,73.0,-100.00,North,356,2.0,6.0,53,0.00,,,0.00,532.000000,,2013-06-11 19:42:00,
2013-06-11 15:53:00,93.0,73.0,-100.00,North,356,2.0,6.0,53,0.00,,,0.00,532.000000,,2013-06-11 19:53:00,
2013-06-11 16:03:00,93.0,73.0,-100.00,North,356,2.0,6.0,53,0.00,,,0.00,532.000000,,2013-06-11 20:03:00,
2013-06-11 16:11:00,85.0,74.0,-100.00,SSE,166,5.0,16.0,70,0.00,,,0.00,513.000000,,2013-06-11 20:11:00,
2013-06-11 16:32:00,85.0,74.0,-100.00,SSE,166,5.0,16.0,70,0.00,,,0.00,513.000000,,2013-06-11 20:32:00,
2013-06-11 16:42:00,85.0,74.0,-100.00,SSE,166,5.0,16.0,70,0.00,,,0.00,513.000000,,2013-06-11 20:42:00,
2013-06-11 16:52:00,85.0,74.0,-100.00,SSE,166,5.0,16.0,70,0.00,,,0.00,513.000000,,2013-06-11 20:52:00,
2013-06-11 17:02:00,85.0,74.0,-100.00,SSE,166,5.0,16.0,70,0.00,,,0.00,513.000000,,2013-06-11 21:02:00,
2013-06-11 17:11:00,72.0,70.0,-100.00,SW,229,5.0,13.0,92,0.54,,,0.54,7.000000,,2013-06-11 21:11:00,
2013-06-11 17:33:00,72.0,70.0,-100.00,SW,229,5.0,13.0,92,0.54,,,0.54,7.000000,,2013-06-11 21:33:00,
2013-06-11 18:03:00,72.0,70.0,-100.00,SW,229,5.0,13.0,92,0.54,,,0.54,7.000000,,2013-06-11 22:03:00,
2013-06-11 18:11:00,72.0,70.0,-100.00,NNW,335,3.0,7.0,95,0.05,,,0.59,5.000000,,2013-06-11 22:11:00,
2013-06-11 18:33:00,72.0,70.0,-100.00,NNW,335,3.0,7.0,95,0.05,,,0.59,5.000000,,2013-06-11 22:33:00,
2013-06-11 18:42:00,72.0,70.0,-100.00,NNW,335,3.0,7.0,95,0.05,,,0.59,5.000000,,2013-06-11 22:42:00,
2013-06-11 18:52:00,72.0,70.0,-100.00,NNW,335,3.0,7.0,95,0.05,,,0.59,5.000000,,2013-06-11 22:52:00,
2013-06-11 19:02:00,72.0,70.0,-100.00,NNW,335,3.0,7.0,95,0.05,,,0.59,5.000000,,2013-06-11 23:02:00,
2013-06-11 19:11:00,71.0,69.0,-100.00,North,352,2.0,5.0,94,0.00,,,0.59,13.000000,,2013-06-11 23:11:00,
2013-06-11 19:32:00,71.0,69.0,-100.00,North,352,2.0,5.0,94,0.00,,,0.59,13.000000,,2013-06-11 23:32:00,
2013-06-11 19:42:00,71.0,69.0,-100.00,North,352,2.0,5.0,94,0.00,,,0.59,13.000000,,2013-06-11 23:42:00,
2013-06-11 19:52:00,71.0,69.0,-100.00,North,352,2.0,5.0,94,0.00,,,0.59,13.000000,,2013-06-11 23:52:00,
2013-06-11 20:02:00,71.0,69.0,-100.00,North,352,2.0,5.0,94,0.00,,,0.59,13.000000,,2013-06-12 00:02:00,
2013-06-11 21:11:00,72.0,70.0,-100.00,SSE,156,0.0,3.0,95,-99.99,,,0.59,2.000000,,2013-06-12 01:11:00,
2013-06-11 21:32:00,72.0,70.0,-100.00,SSE,156,0.0,3.0,95,-99.99,,,0.59,2.000000,,2013-06-12 01:32:00,
2013-06-11 21:42:00,72.0,70.0,-100.00,SSE,156,0.0,3.0,95,-99.99,,,0.59,2.000000,,2013-06-12 01:42:00,
2013-06-11 21:52:00,72.0,70.0,-100.00,SSE,156,0.0,3.0,95,-99.99,,,0.59,2.000000,,2013-06-12 01:52:00,
2013-06-11 22:02:00,72.0,70.0,-100.00,SSE,156,0.0,3.0,95,-99.99,,,0.59,2.000000,,2013-06-12 02:02:00,
2013-06-11 22:11:00,72.0,70.0,-100.00,SSE,151,1.0,4.0,95,0.01,,,0.60,0.000000,,2013-06-12 02:11:00,
2013-06-11 22:32:00,72.0,70.0,-100.00,SSE,151,1.0,4.0,95,0.01,,,0.60,0.000000,,2013-06-12 02:32:00,
2013-06-11 22:42:00,72.0,70.0,-100.00,SSE,151,1.0,4.0,95,0.01,,,0.60,0.000000,,2013-06-12 02:42:00,
2013-06-11 22:52:00,72.0,70.0,-100.00,SSE,151,1.0,4.0,95,0.01,,,0.60,0.000000,,2013-06-12 02:52:00,
2013-06-11 23:02:00,72.0,70.0,-100.00,SSE,151,1.0,4.0,95,0.01,,,0.60,0.000000,,2013-06-12 03:02:00,
2013-06-11 23:11:00,72.0,71.0,-100.00,SW,216,2.0,3.0,96,0.00,,,0.60,0.000000,,2013-06-12 03:11:00,
2013-06-11 23:33:00,72.0,71.0,-100.00,SW,216,2.0,3.0,96,0.00,,,0.60,0.000000,,2013-06-12 03:33:00,
2013-06-11 23:43:00,72.0,71.0,-100.00,SW,216,2.0,3.0,96,0.00,,,0.60,0.000000,,2013-06-12 03:43:00,
2013-06-11 23:53:00,72.0,71.0,-100.00,SW,216,2.0,3.0,96,0.00,,,0.60,0.000000,,2013-06-12 03:53:00,